RYR86DZ EBCI-LFMU

Flight info

Callsign RYR86DZ
Flight time 1h 17m
Altitude 31000
Route CIV N872 LESDO DCT KOVIN DCT DUCRA UM728 RESMI UN857 DISAK DCT DIRMO DCT ETAMO DCT ADEKA DCT MOKDI DCT MEN J27 AFRIC
Aircraft B738/M-SDE2E3FGHIRWXY/LB1

Departure

Time 2026-04-25 19:03
Airport Brussels South Charleroi Airport (EBCI)

Arrival

Time 2026-04-25 20:20
Airport Béziers Vias airport (LFMU)
Time Latitude Longitude Altitude Speed Heading
2026-04-25 18:37 50.46763 4.46755 577 ft 0 kts 336°
2026-04-25 18:56 50.46760 4.46758 577 ft 2 kts 336°
2026-04-25 18:56 50.46745 4.46768 578 ft 2 kts 336°
2026-04-25 18:56 50.46730 4.46778 579 ft 2 kts 349°
2026-04-25 18:57 50.46715 4.46771 579 ft 2 kts 65°
2026-04-25 18:57 50.46714 4.46767 577 ft 0 kts 68°
2026-04-25 19:00 50.46660 4.46801 577 ft 13 kts 159°
2026-04-25 19:00 50.46641 4.46918 583 ft 14 kts 67°
2026-04-25 19:01 50.46751 4.47292 577 ft 11 kts 68°
2026-04-25 19:01 50.46757 4.47329 580 ft 0 kts 82°
2026-04-25 19:01 50.46757 4.47350 583 ft 6 kts 92°
2026-04-25 19:01 50.46747 4.47389 556 ft 1 kts 131°
2026-04-25 19:02 50.46736 4.47400 589 ft 9 kts 150°
2026-04-25 19:02 50.46669 4.47441 579 ft 13 kts 161°
2026-04-25 19:02 50.46582 4.47339 583 ft 33 kts 246°
2026-04-25 19:03 50.46280 4.46294 583 ft 124 kts 245°
2026-04-25 19:03 50.45514 4.43691 1236 ft 169 kts 246°
2026-04-25 19:03 50.44997 4.41944 1896 ft 185 kts 248°
2026-04-25 19:04 50.43883 4.38083 3399 ft 204 kts 248°
2026-04-25 19:04 50.43293 4.36050 4217 ft 205 kts 248°
2026-04-25 19:05 50.42054 4.31676 5159 ft 240 kts 249°
2026-04-25 19:05 50.40940 4.26370 6105 ft 274 kts 271°
2026-04-25 19:05 50.41346 4.23460 6862 ft 276 kts 300°
2026-04-25 19:06 50.42332 4.20984 7923 ft 269 kts 305°
2026-04-25 19:06 50.44369 4.15987 9672 ft 276 kts 303°
2026-04-25 19:06 50.45178 4.13237 10442 ft 285 kts 281°
2026-04-25 19:07 50.44240 4.06723 11057 ft 334 kts 249°
2026-04-25 19:07 50.43337 4.03317 11712 ft 341 kts 249°
2026-04-25 19:08 50.41521 3.96387 13404 ft 346 kts 250°
2026-04-25 19:08 50.40620 3.92872 14189 ft 349 kts 250°
2026-04-25 19:09 50.37902 3.82120 16338 ft 358 kts 250°
2026-04-25 19:09 50.37592 3.80890 16582 ft 359 kts 250°
2026-04-25 19:09 50.35053 3.71115 18424 ft 370 kts 243°
2026-04-25 19:10 50.33482 3.67886 19015 ft 377 kts 226°
2026-04-25 19:10 50.31372 3.65446 19666 ft 382 kts 209°
2026-04-25 19:10 50.28928 3.63747 20313 ft 385 kts 205°
2026-04-25 19:10 50.26438 3.62161 20885 ft 388 kts 204°
2026-04-25 19:11 50.23931 3.60542 21468 ft 391 kts 205°
2026-04-25 19:11 50.21417 3.58872 22062 ft 393 kts 206°
2026-04-25 19:11 50.18899 3.57177 22651 ft 396 kts 206°
2026-04-25 19:11 50.16363 3.55468 23229 ft 398 kts 206°
2026-04-25 19:12 50.13813 3.53757 23777 ft 401 kts 206°
2026-04-25 19:12 50.11241 3.52036 24236 ft 403 kts 206°
2026-04-25 19:12 50.08657 3.50308 24697 ft 405 kts 206°
2026-04-25 19:12 50.06058 3.48573 25159 ft 408 kts 206°
2026-04-25 19:13 50.03445 3.46830 25604 ft 410 kts 206°
2026-04-25 19:13 50.00820 3.45080 26052 ft 411 kts 206°
2026-04-25 19:13 49.98190 3.43330 26613 ft 410 kts 206°
2026-04-25 19:13 49.95576 3.41592 27160 ft 409 kts 206°
2026-04-25 19:14 49.92963 3.39856 27160 ft 407 kts 206°
2026-04-25 19:14 49.92120 3.39297 27174 ft 406 kts 206°
2026-04-25 19:14 49.87768 3.36410 27192 ft 407 kts 206°
2026-04-25 19:14 49.85166 3.34687 27204 ft 407 kts 206°
2026-04-25 19:15 49.82559 3.32963 27207 ft 408 kts 206°
2026-04-25 19:15 49.79952 3.31242 27198 ft 408 kts 206°
2026-04-25 19:15 49.77342 3.29516 27199 ft 408 kts 206°
2026-04-25 19:15 49.74734 3.27791 27194 ft 408 kts 206°
2026-04-25 19:16 49.72126 3.26067 27197 ft 407 kts 206°
2026-04-25 19:16 49.69524 3.24348 27188 ft 407 kts 206°
2026-04-25 19:16 49.67800 3.23211 27192 ft 406 kts 206°
2026-04-25 19:16 49.64356 3.20941 27241 ft 409 kts 206°
2026-04-25 19:17 49.61738 3.19217 27691 ft 409 kts 206°
2026-04-25 19:17 49.59135 3.17508 28384 ft 404 kts 206°
2026-04-25 19:17 49.56568 3.15823 29108 ft 398 kts 206°
2026-04-25 19:17 49.54033 3.14161 29801 ft 394 kts 207°
2026-04-25 19:18 49.51527 3.12519 30406 ft 391 kts 207°
2026-04-25 19:18 49.49836 3.11412 30710 ft 390 kts 207°
2026-04-25 19:18 49.47433 3.09529 31079 ft 387 kts 216°
2026-04-25 19:19 49.42873 3.04890 31202 ft 401 kts 217°
2026-04-25 19:19 49.38155 3.00037 31202 ft 416 kts 215°
2026-04-25 19:20 49.32869 2.95985 31194 ft 432 kts 207°
2026-04-25 19:20 49.27366 2.92179 31178 ft 439 kts 207°
2026-04-25 19:21 49.21957 2.88414 31179 ft 440 kts 207°
2026-04-25 19:21 49.14811 2.83381 31171 ft 440 kts 207°
2026-04-25 19:22 49.09259 2.79461 31163 ft 440 kts 207°
2026-04-25 19:23 49.00943 2.73606 31157 ft 438 kts 207°
2026-04-25 19:23 48.92653 2.67792 31157 ft 437 kts 207°
2026-04-25 19:24 48.87131 2.63932 31158 ft 437 kts 207°
2026-04-25 19:25 48.76082 2.56236 31160 ft 438 kts 207°
2026-04-25 19:25 48.70532 2.52384 31161 ft 439 kts 207°
2026-04-25 19:26 48.64972 2.48535 31157 ft 440 kts 207°
2026-04-25 19:26 48.59406 2.44691 31156 ft 441 kts 206°
2026-04-25 19:27 48.54765 2.41493 31156 ft 441 kts 206°
2026-04-25 19:27 48.48235 2.37004 31152 ft 442 kts 206°
2026-04-25 19:28 48.42683 2.33199 31147 ft 441 kts 206°
2026-04-25 19:28 48.37043 2.29384 31148 ft 442 kts 202°
2026-04-25 19:29 48.31031 2.27614 31151 ft 448 kts 185°
2026-04-25 19:29 48.24785 2.28116 31148 ft 451 kts 176°
2026-04-25 19:30 48.18534 2.29086 31140 ft 452 kts 176°
2026-04-25 19:30 48.12277 2.30047 31154 ft 452 kts 176°
2026-04-25 19:31 48.06009 2.30960 31152 ft 453 kts 177°
2026-04-25 19:31 47.99736 2.31847 31151 ft 453 kts 177°
2026-04-25 19:32 47.93457 2.32728 31155 ft 453 kts 177°
2026-04-25 19:32 47.88239 2.33458 31155 ft 453 kts 177°
2026-04-25 19:33 47.80899 2.34485 31156 ft 453 kts 177°
2026-04-25 19:33 47.74624 2.35361 31150 ft 452 kts 177°
2026-04-25 19:34 47.68359 2.36234 31144 ft 452 kts 177°
2026-04-25 19:34 47.62109 2.37103 31141 ft 451 kts 177°
2026-04-25 19:35 47.55868 2.37968 31135 ft 450 kts 177°
2026-04-25 19:35 47.49637 2.38830 31134 ft 449 kts 177°
2026-04-25 19:36 47.43415 2.39688 31133 ft 449 kts 177°
2026-04-25 19:36 47.37198 2.40543 31125 ft 449 kts 177°
2026-04-25 19:37 47.30982 2.41397 31129 ft 448 kts 177°
2026-04-25 19:37 47.24765 2.42249 31133 ft 449 kts 177°
2026-04-25 19:38 47.18544 2.43099 31129 ft 449 kts 177°
2026-04-25 19:38 47.12324 2.43947 31127 ft 449 kts 177°
2026-04-25 19:39 47.06094 2.44794 31129 ft 450 kts 177°
2026-04-25 19:39 46.99905 2.45634 31131 ft 450 kts 177°
2026-04-25 19:40 46.93629 2.46484 31131 ft 450 kts 177°
2026-04-25 19:40 46.87393 2.47327 31127 ft 450 kts 177°
2026-04-25 19:41 46.81189 2.48163 31130 ft 451 kts 177°
2026-04-25 19:41 46.77015 2.48724 31131 ft 451 kts 177°
2026-04-25 19:42 46.68697 2.49841 31128 ft 451 kts 177°
2026-04-25 19:42 46.62446 2.50678 31136 ft 451 kts 177°
2026-04-25 19:43 46.56193 2.51512 31133 ft 451 kts 178°
2026-04-25 19:43 46.49940 2.52345 31135 ft 451 kts 178°
2026-04-25 19:44 46.43688 2.53176 31138 ft 451 kts 178°
2026-04-25 19:44 46.37434 2.54006 31144 ft 451 kts 178°
2026-04-25 19:45 46.31184 2.54833 31139 ft 451 kts 178°
2026-04-25 19:45 46.24936 2.55657 31147 ft 451 kts 178°
2026-04-25 19:46 46.18680 2.56481 31146 ft 451 kts 178°
2026-04-25 19:46 46.12422 2.57303 31148 ft 452 kts 178°
2026-04-25 19:47 46.06159 2.58124 31154 ft 452 kts 178°
2026-04-25 19:47 45.99888 2.58944 31157 ft 453 kts 178°
2026-04-25 19:48 45.93611 2.59763 31152 ft 453 kts 178°
2026-04-25 19:48 45.87334 2.60581 31165 ft 453 kts 178°
2026-04-25 19:49 45.83169 2.61122 31154 ft 454 kts 178°
2026-04-25 19:49 45.74761 2.62213 31166 ft 454 kts 178°
2026-04-25 19:50 45.65313 2.63434 31167 ft 455 kts 178°
2026-04-25 19:51 45.59009 2.64246 31167 ft 455 kts 177°
2026-04-25 19:51 45.52695 2.65058 31168 ft 456 kts 177°
2026-04-25 19:52 45.46416 2.65864 31169 ft 456 kts 177°
2026-04-25 19:52 45.40051 2.66679 31171 ft 456 kts 177°
2026-04-25 19:53 45.33768 2.67481 31176 ft 456 kts 177°
2026-04-25 19:53 45.27438 2.68288 31172 ft 457 kts 177°
2026-04-25 19:54 45.21116 2.69092 31173 ft 456 kts 177°
2026-04-25 19:54 45.14792 2.69894 31190 ft 456 kts 177°
2026-04-25 19:55 45.08468 2.70696 31175 ft 456 kts 177°
2026-04-25 19:55 45.02145 2.71494 31173 ft 456 kts 177°
2026-04-25 19:56 44.95815 2.72291 31157 ft 457 kts 177°
2026-04-25 19:56 44.89487 2.73087 31171 ft 456 kts 177°
2026-04-25 19:57 44.83219 2.73876 31157 ft 449 kts 177°
2026-04-25 19:57 44.76980 2.74656 31108 ft 452 kts 177°
2026-04-25 19:57 44.73843 2.75047 30675 ft 451 kts 177°
2026-04-25 19:58 44.70743 2.75435 30189 ft 445 kts 177°
2026-04-25 19:58 44.67669 2.75819 29645 ft 441 kts 177°
2026-04-25 19:58 44.64632 2.76199 29135 ft 435 kts 177°
2026-04-25 19:58 44.61633 2.76573 28620 ft 431 kts 177°
2026-04-25 19:59 44.58661 2.76943 28110 ft 427 kts 177°
2026-04-25 19:59 44.55714 2.77309 27606 ft 423 kts 177°
2026-04-25 19:59 44.52796 2.77670 27101 ft 419 kts 176°
2026-04-25 19:59 44.49899 2.78029 26614 ft 416 kts 176°
2026-04-25 20:00 44.47027 2.78384 26126 ft 413 kts 176°
2026-04-25 20:00 44.46061 2.78503 25961 ft 412 kts 176°
2026-04-25 20:00 44.41337 2.79087 25160 ft 408 kts 176°
2026-04-25 20:00 44.38518 2.79435 24680 ft 405 kts 176°
2026-04-25 20:01 44.32920 2.80125 23689 ft 403 kts 176°
2026-04-25 20:01 44.30175 2.80463 23157 ft 400 kts 176°
2026-04-25 20:01 44.27416 2.80922 22590 ft 400 kts 169°
2026-04-25 20:02 44.24756 2.82040 22016 ft 400 kts 161°
2026-04-25 20:02 44.22155 2.83379 21529 ft 397 kts 161°
2026-04-25 20:02 44.19563 2.84744 20680 ft 403 kts 160°
2026-04-25 20:02 44.16961 2.86110 20112 ft 394 kts 161°
2026-04-25 20:03 44.14427 2.87429 19613 ft 383 kts 161°
2026-04-25 20:03 44.11964 2.88699 19143 ft 372 kts 161°
2026-04-25 20:03 44.09569 2.89923 18701 ft 362 kts 161°
2026-04-25 20:03 44.07231 2.91112 18238 ft 353 kts 161°
2026-04-25 20:04 44.04942 2.92271 17774 ft 347 kts 161°
2026-04-25 20:04 44.02677 2.93415 17362 ft 348 kts 162°
2026-04-25 20:04 44.01122 2.94198 17067 ft 356 kts 161°
2026-04-25 20:04 43.98744 2.95394 16623 ft 369 kts 161°
2026-04-25 20:05 43.96364 2.96591 16158 ft 368 kts 161°
2026-04-25 20:05 43.93965 2.97799 15704 ft 366 kts 161°
2026-04-25 20:05 43.91580 2.99000 15259 ft 364 kts 161°
2026-04-25 20:05 43.89207 3.00194 14808 ft 362 kts 161°
2026-04-25 20:06 43.86845 3.01381 14367 ft 360 kts 161°
2026-04-25 20:06 43.84510 3.02553 14190 ft 353 kts 161°
2026-04-25 20:06 43.82232 3.03695 14145 ft 342 kts 161°
2026-04-25 20:06 43.80043 3.04793 14051 ft 328 kts 161°
2026-04-25 20:07 43.77927 3.05853 13642 ft 319 kts 161°
2026-04-25 20:07 43.75834 3.06899 12861 ft 325 kts 160°
2026-04-25 20:07 43.73653 3.07988 11879 ft 339 kts 160°
2026-04-25 20:07 43.71433 3.09096 11392 ft 336 kts 160°
2026-04-25 20:08 43.69245 3.10189 10925 ft 332 kts 160°
2026-04-25 20:08 43.67089 3.11264 10615 ft 324 kts 160°
2026-04-25 20:08 43.65023 3.12294 10471 ft 308 kts 160°
2026-04-25 20:08 43.63039 3.13282 10333 ft 299 kts 160°
2026-04-25 20:09 43.61111 3.14241 10191 ft 291 kts 160°
2026-04-25 20:09 43.59230 3.15176 10015 ft 285 kts 160°
2026-04-25 20:09 43.57364 3.16103 9693 ft 285 kts 160°
2026-04-25 20:09 43.55501 3.17029 9372 ft 284 kts 160°
2026-04-25 20:10 43.53648 3.17948 9069 ft 282 kts 160°
2026-04-25 20:10 43.51803 3.18863 8799 ft 280 kts 160°
2026-04-25 20:10 43.49977 3.19769 8509 ft 278 kts 159°
2026-04-25 20:10 43.48157 3.20670 8213 ft 278 kts 159°
2026-04-25 20:11 43.46337 3.21572 7922 ft 279 kts 160°
2026-04-25 20:11 43.44494 3.22484 7620 ft 284 kts 160°
2026-04-25 20:11 43.42623 3.23409 7314 ft 286 kts 160°
2026-04-25 20:11 43.40753 3.24334 6991 ft 283 kts 160°
2026-04-25 20:12 43.38938 3.25229 6712 ft 270 kts 160°
2026-04-25 20:12 43.37212 3.26080 6397 ft 258 kts 160°
2026-04-25 20:12 43.35559 3.26895 6096 ft 247 kts 160°
2026-04-25 20:12 43.34512 3.27442 5911 ft 239 kts 153°
2026-04-25 20:13 43.32935 3.29418 5589 ft 225 kts 123°
2026-04-25 20:13 43.32262 3.31318 5440 ft 221 kts 104°
2026-04-25 20:13 43.31911 3.33364 5344 ft 220 kts 99°
2026-04-25 20:13 43.31608 3.35422 5241 ft 220 kts 99°
2026-04-25 20:14 43.31307 3.37467 5128 ft 216 kts 99°
2026-04-25 20:14 43.31007 3.39464 5037 ft 212 kts 99°
2026-04-25 20:14 43.30709 3.41437 4951 ft 210 kts 99°
2026-04-25 20:14 43.30413 3.43385 4853 ft 208 kts 99°
2026-04-25 20:15 43.30120 3.45323 4722 ft 209 kts 99°
2026-04-25 20:15 43.29827 3.47259 4492 ft 204 kts 98°
2026-04-25 20:15 43.29541 3.49137 4284 ft 198 kts 99°
2026-04-25 20:15 43.29267 3.50936 4051 ft 192 kts 98°
2026-04-25 20:16 43.28998 3.52698 3858 ft 187 kts 99°
2026-04-25 20:16 43.28739 3.54441 3648 ft 186 kts 96°
2026-04-25 20:16 43.28961 3.56040 3418 ft 164 kts 42°
2026-04-25 20:16 43.29956 3.56603 3346 ft 160 kts 357°
2026-04-25 20:17 43.30922 3.55957 3143 ft 160 kts 304°
2026-04-25 20:17 43.31238 3.54489 2965 ft 165 kts 283°
2026-04-25 20:17 43.31432 3.52944 2719 ft 163 kts 283°
2026-04-25 20:17 43.31565 3.51416 2474 ft 159 kts 280°
2026-04-25 20:18 43.31645 3.49955 2292 ft 146 kts 279°
2026-04-25 20:18 43.31643 3.48577 2059 ft 143 kts 275°
2026-04-25 20:18 43.31650 3.47219 1864 ft 143 kts 278°
2026-04-25 20:18 43.31691 3.45856 1611 ft 142 kts 280°
2026-04-25 20:19 43.31810 3.44533 1359 ft 138 kts 282°
2026-04-25 20:19 43.31937 3.43216 1129 ft 140 kts 279°
2026-04-25 20:19 43.31987 3.41878 930 ft 142 kts 275°
2026-04-25 20:19 43.32063 3.40528 705 ft 141 kts 275°
2026-04-25 20:20 43.32144 3.39185 483 ft 141 kts 272°
2026-04-25 20:20 43.32199 3.37848 251 ft 140 kts 272°
2026-04-25 20:20 43.32277 3.36534 58 ft 134 kts 272°
2026-04-25 20:20 43.32324 3.35644 53 ft 48 kts 275°
2026-04-25 20:21 43.32323 3.35371 50 ft 15 kts 239°
2026-04-25 20:21 43.32230 3.35330 55 ft 15 kts 182°
2026-04-25 20:21 43.32147 3.35347 55 ft 8 kts 184°
2026-04-25 20:21 43.32135 3.35345 55 ft 0 kts 186°